Dickinson, ND

12:44 PM MST on February 22, 2018 (GMT -0700)
Dickinson Municipal

Weather History for KDIK - September, 2013

Change the Weather History Date:

Tuesday, September 17, 2013

  Actual Average Record
Temperature  
Mean Temperature 70 °F 56 °F  
Max Temperature 86 °F 70 °F 95 °F (1989)
Min Temperature 53 °F 42 °F 27 °F (1901)
Degree Days  
Heating Degree Days 0 9  
Month to date heating degree days 19 110  
Since 1 July heating degree days 59 196  
Cooling Degree Days 5 1  
Month to date cooling degree days 72 28  
Year to date cooling degree days 384 414  
Growing Degree Days 20 (Base 50)    
Moisture  
Dew Point 57 °F    
Average Humidity 65    
Maximum Humidity 93    
Minimum Humidity 37    
Precipitation  
Precipitation 0.12 in 0.04 in 0.86 in (1996)
Month to date precipitation 2.75 0.83  
Year to date precipitation 15.92 13.12  
Sea Level Pressure  
Sea Level Pressure 29.70 in    
Wind  
Wind Speed 11 mph (SSE)    
Max Wind Speed 23 mph    
Max Gust Speed 28 mph    
Visibility 10 miles    
Events Rain , Thunderstorm    
T = Trace of Precipitation, MM = Missing Value Source: NWS Daily Summary

Daily Weather History Graph

Daily Weather History Graph

Search for Another Location

Airport or City:

Trip Planner

Search our weather history database for the weather conditions in past years. The results will help you decide how hot, cold, wet, or windy it might be!

Date:

Astronomy

Sep. 17, 2013 Rise Set
Actual Time 6:31 AM MDT 6:58 PM MDT
Civil Twilight 6:01 AM MDT 7:28 PM MDT
Nautical Twilight 5:25 AM MDT 8:04 PM MDT
Astronomical Twilight 4:48 AM MDT 8:41 PM MDT
Moon 5:49 PM MDT (9/17) 4:23 AM MDT (9/17)
Length of Visible Light 13h 27m
Length of Day
12h 26m
Waxing Gibbous, 96% of the Moon is Illuminated
Sep 17
Waxing Gibbous
Sep 19
Full
Sep 26
Last Quarter
Oct 4
New
Oct 11
First Quarter

Hourly Weather History & Observations

Time (MDT) Temp. Heat Index Dew Point Humidity Pressure Visibility Wind Dir Wind Speed Gust Speed Precip Events Conditions
12:56 AM 57.9 °F - 51.1 °F 78% 29.81 in 10.0 mi South 17.3 mph - N/A   Clear
1:56 AM 55.9 °F - 50.0 °F 80% 29.80 in 10.0 mi South 13.8 mph - N/A   Clear
2:56 AM 55.0 °F - 51.1 °F 86% 29.78 in 10.0 mi South 16.1 mph - N/A   Clear
3:56 AM 55.0 °F - 51.1 °F 86% 29.76 in 10.0 mi South 15.0 mph - N/A   Clear
4:56 AM 54.0 °F - 51.1 °F 90% 29.75 in 10.0 mi South 15.0 mph - N/A   Clear
5:56 AM 54.0 °F - 51.1 °F 90% 29.75 in 10.0 mi South 15.0 mph - N/A   Clear
6:56 AM 54.0 °F - 51.1 °F 90% 29.76 in 10.0 mi South 13.8 mph - N/A   Clear
7:56 AM 57.0 °F - 53.1 °F 87% 29.76 in 10.0 mi South 11.5 mph - N/A   Clear
8:56 AM 62.1 °F - 55.0 °F 78% 29.75 in 10.0 mi South 11.5 mph - N/A   Clear
9:56 AM 68.0 °F - 55.9 °F 65% 29.74 in 10.0 mi South 8.1 mph - N/A   Clear
10:56 AM 73.0 °F - 57.9 °F 59% 29.72 in 10.0 mi South 9.2 mph - N/A   Clear
11:56 AM 79.0 °F - 59.0 °F 50% 29.69 in 10.0 mi South 8.1 mph - N/A   Clear
12:56 PM 82.0 °F 82.1 °F 59.0 °F 45% 29.68 in 10.0 mi South 8.1 mph - N/A   Clear
1:56 PM 84.0 °F 83.5 °F 57.9 °F 41% 29.66 in 10.0 mi South 6.9 mph - N/A   Clear
2:56 PM 84.9 °F 84.2 °F 57.9 °F 40% 29.65 in 10.0 mi South 5.8 mph - N/A   Clear
3:56 PM 86.0 °F 84.9 °F 57.0 °F 37% 29.62 in 10.0 mi South 8.1 mph - N/A   Clear
4:56 PM 84.9 °F 84.2 °F 57.9 °F 40% 29.62 in 10.0 mi SE 11.5 mph - N/A   Clear
5:56 PM 80.1 °F 80.7 °F 59.0 °F 48% 29.62 in 10.0 mi SE 11.5 mph - N/A   Clear
6:56 PM 73.0 °F - 59.0 °F 61% 29.63 in 10.0 mi SE 8.1 mph - N/A   Clear
7:56 PM 68.0 °F - 59.0 °F 73% 29.63 in 10.0 mi ESE 9.2 mph - N/A   Clear
8:56 PM 69.1 °F - 60.1 °F 73% 29.60 in 10.0 mi SE 13.8 mph 19.6 mph N/A   Clear
9:56 PM 68.0 °F - 59.0 °F 73% 29.60 in 10.0 mi SE 11.5 mph - N/A   Clear
10:26 PM 66.2 °F - 59.0 °F 78% 29.66 in 10.0 mi SE 11.5 mph - N/A Thunderstorm Clear
10:44 PM 68.0 °F - 60.8 °F 78% 29.73 in 10.0 mi SW 13.8 mph 27.6 mph N/A   Scattered Clouds
10:51 PM 69.8 °F - 60.8 °F 73% 29.73 in 8.0 mi SSW 11.5 mph 21.9 mph N/A Thunderstorm Mostly Cloudy
11:03 PM 66.2 °F - 60.8 °F 83% 29.74 in 6.0 mi SW 13.8 mph - 0.03 in Rain , Thunderstorm Heavy Thunderstorms and Rain
11:19 PM 66.2 °F - 62.6 °F 88% 29.72 in 2.5 mi NNW 10.4 mph - 0.11 in Rain , Thunderstorm Heavy Thunderstorms and Rain
11:30 PM 66.2 °F - 60.8 °F 83% 29.67 in 10.0 mi NNE 13.8 mph 20.7 mph 0.11 in Rain , Thunderstorm Light Thunderstorms and Rain
11:48 PM 64.4 °F - 60.8 °F 88% 29.65 in 10.0 mi North 10.4 mph - 0.11 in Rain Light Rain
11:56 PM 64.9 °F - 61.0 °F 87% 29.59 in 10.0 mi NE 10.4 mph - 0.11 in   Mostly Cloudy